Petawawa, Ontario

9:52 AM EDT on July 23, 2017 (GMT -0400)
Petawawa

Weather History for CYWA - July, 2012

Change the Weather History Date:

Sunday, July 15, 2012

  Actual Average Record
Temperature  
Mean Temperature 78 °F -  
Max Temperature 91 °F 76 °F 93 °F (1998)
Min Temperature 64 °F 52 °F 46 °F (2015)
Cooling Degree Days 12    
Growing Degree Days 28 (Base 50)    
Moisture  
Dew Point 67 °F    
Average Humidity 75    
Maximum Humidity 94    
Minimum Humidity 34    
Precipitation  
Precipitation 0.08 in 0.10 in - ()
Sea Level Pressure  
Sea Level Pressure 29.92 in    
Wind  
Wind Speed 3 mph ()    
Max Wind Speed 25 mph    
Max Gust Speed 32 mph    
Visibility 7.2 miles    
Events Rain    
Averages and records for this station are not official NWS values.
T = Trace of Precipitation, MM = Missing Value Source: Averaged Metar Reports

Daily Weather History Graph

Daily Weather History Graph

Search for Another Location

Airport or City:

Trip Planner

Search our weather history database for the weather conditions in past years. The results will help you decide how hot, cold, wet, or windy it might be!

Date:

Astronomy

Jul. 15, 2012 Rise Set
Actual Time 5:33 AM EDT 8:56 PM EDT
Civil Twilight 4:57 AM EDT 9:32 PM EDT
Nautical Twilight 4:08 AM EDT 10:20 PM EDT
Astronomical Twilight 3:07 AM EDT 11:22 PM EDT
Moon 2:29 AM EDT (7/15) 6:11 PM EDT (7/15)
Length of Visible Light 16h 35m
Length of Day
15h 22m
Waning Crescent, 12% of the Moon is Illuminated
Jul 15
Waning Crescent
Jul 19
New
Jul 26
First Quarter
Aug 1
Full
Aug 9
Last Quarter

Hourly Weather History & Observations

Time (EDT) Temp. Heat Index Dew Point Humidity Pressure Visibility Wind Dir Wind Speed Gust Speed Precip Events Conditions
2:00 AM 70 °F - 62 °F 69% 30.02 in 9 mi Calm Calm - -  
2:00 AM 69.8 °F - 62.6 °F 78% 30.02 in 9.0 mi SE 2.3 mph - N/A   Clear
3:00 AM 68.0 °F - 62.6 °F 83% 30.02 in 9.0 mi Calm Calm - N/A   Clear
4:00 AM 66.2 °F - 60.8 °F 83% 30.01 in 8.0 mi Calm Calm - N/A   Clear
5:00 AM 66 °F - 62 °F 83% 30.01 in 7 mi Calm Calm - -  
5:00 AM 66.2 °F - 62.6 °F 88% 30.01 in 8.0 mi Calm Calm - N/A   Clear
6:00 AM 64.4 °F - 60.8 °F 88% 30.02 in 6.0 mi Calm Calm - N/A   Clear
7:00 AM 68.0 °F - 64.4 °F 88% 30.01 in 7.0 mi Calm Calm - N/A   Clear
8:00 AM 74 °F - 66 °F 70% 30.01 in 7 mi Calm Calm - -  
8:00 AM 73.4 °F - 66.2 °F 78% 30.01 in 8.0 mi Calm Calm - N/A   Clear
9:00 AM 73.4 °F - 66.2 °F 78% 30.01 in 9.0 mi Calm Calm - N/A   Partly Cloudy
10:00 AM 77.0 °F - 66.2 °F 69% 30.00 in 9.0 mi Calm Calm - N/A   Partly Cloudy
11:00 AM 80 °F - 66 °F 54% 29.99 in 9 mi ENE 4.6 mph - -  
11:00 AM 80.6 °F 82.7 °F 66.2 °F 61% 29.99 in 9.0 mi ENE 5.8 mph - N/A   Scattered Clouds
12:00 PM 82.4 °F 85.4 °F 68.0 °F 62% 29.98 in 9.0 mi ENE 4.6 mph - N/A   Partly Cloudy
1:00 PM 86.0 °F 89.4 °F 68.0 °F 55% 29.95 in 9.0 mi ENE 8.1 mph - N/A   Partly Cloudy
2:00 PM 86 °F - 67 °F 43% 29.92 in 9 mi ESE 10.4 mph - -   Unknown Precipitation
2:00 PM 86.0 °F 88.2 °F 66.2 °F 51% 29.92 in 9.0 mi ESE 9.2 mph - N/A   Scattered Clouds
2:20 PM 84.2 °F 88.4 °F 69.8 °F 62% 29.91 in 9.0 mi SE 4.6 mph - N/A Rain Rain
2:38 PM 84.2 °F 87.3 °F 68.0 °F 58% 29.90 in 9.0 mi SE 5.8 mph - N/A   Overcast
3:00 PM 86.0 °F 89.4 °F 68.0 °F 55% 29.88 in 9.0 mi ESE 8.1 mph - N/A   Mostly Cloudy
4:00 PM 89.6 °F 91.1 °F 64.4 °F 43% 29.86 in 9.0 mi SSW 6.9 mph - N/A   Mostly Cloudy
5:00 PM 88 °F - 64 °F 34% 29.84 in 9 mi South 4.6 mph - -  
5:00 PM 87.8 °F 89.4 °F 64.4 °F 46% 29.84 in 9.0 mi SSW 3.5 mph - N/A   Partly Cloudy
5:26 PM 82.4 °F 84.6 °F 66.2 °F 58% 29.85 in 9.0 mi WSW 10.4 mph - N/A Rain Light Rain
5:30 PM 71.6 °F - 69.8 °F 94% 29.85 in 2.0 mi SSW 25.3 mph 32.2 mph N/A Rain Heavy Rain
5:31 PM 71.6 °F - 68.0 °F 88% 29.85 in 1.1 mi North - - N/A Rain Heavy Rain
5:33 PM 71.6 °F - 66.2 °F 83% 29.85 in 1.0 mi North - - N/A Rain Heavy Rain
5:34 PM 73.4 °F - 66.2 °F 78% 29.85 in 0.8 mi North - - N/A Rain Heavy Rain
5:41 PM 73.4 °F - 68.0 °F 83% 29.85 in 1.8 mi North - - N/A Rain Heavy Rain
5:42 PM 75.2 °F - 68.0 °F 78% 29.85 in 2.5 mi North - - N/A Rain Heavy Rain
5:51 PM 75.2 °F - 69.8 °F 83% 29.84 in 9.0 mi North - - N/A Rain Light Rain
5:52 PM 75.2 °F - 69.8 °F 83% 29.84 in 9.0 mi North - - N/A   Scattered Clouds
6:44 PM 77.0 °F - 69.8 °F 78% 29.86 in 9.0 mi North - - N/A Rain Light Rain
7:00 PM 73.4 °F - 69.8 °F 88% 29.89 in 5.0 mi SW 6.9 mph - N/A Rain Light Rain
7:02 PM 71.6 °F - 69.8 °F 94% 29.88 in 4.0 mi SW 6.9 mph - N/A Rain Rain
7:06 PM 71.6 °F - 69.8 °F 94% 29.88 in 2.5 mi SSW 9.2 mph - N/A Rain Rain
7:24 PM 71.6 °F - 69.8 °F 94% 29.87 in 7.0 mi NW 2.3 mph - N/A Rain Light Rain
7:34 PM 73.4 °F - 69.8 °F 88% 29.87 in 7.0 mi NW 3.5 mph - N/A Rain Light Rain
7:45 PM 73.4 °F - 69.8 °F 88% 29.87 in 9.0 mi NNW 2.3 mph - N/A   Mostly Cloudy
8:00 PM 73 °F - 70 °F 87% 29.87 in 9 mi West 3.5 mph - -  
8:00 PM 73.4 °F - 69.8 °F 88% 29.87 in 9.0 mi West 2.3 mph - N/A   Scattered Clouds
10:00 PM 71.6 °F - 68.0 °F 88% 29.88 in 9.0 mi WNW 3.5 mph - N/A   Clear
11:00 PM 70 °F - 68 °F 91% 29.88 in 7 mi West 3.5 mph - -  
11:00 PM 69.8 °F - 68.0 °F 94% 29.88 in 7.0 mi West 4.6 mph - N/A   Clear